| time (UTC) | temp F | wind direction | speed MPH | gust MPH | rain 1hr in | rain 24hr in | rain mn in | humidity % | barometer mb |
| 20260502164051 | 66 | 356 | 3.0 | 12.0 | 0.00 | 2.19 | 1.09 | 76 | 1014.9 |
| 20260502163551 | 66 | 350 | 4.0 | 13.0 | 0.00 | 2.19 | 1.09 | 78 | 1015.0 |
| 20260502163051 | 65 | 70 | 4.0 | 13.0 | 0.00 | 2.19 | 1.09 | 76 | 1014.9 |
| 20260502162551 | 65 | 13 | 4.0 | 9.0 | 0.00 | 2.19 | 1.09 | 78 | 1015.1 |
| 20260502162051 | 65 | 53 | 3.0 | 9.0 | 0.00 | 2.19 | 1.09 | 79 | 1015.1 |
| 20260502161551 | 64 | 271 | 3.0 | 9.0 | 0.00 | 2.19 | 1.09 | 82 | 1015.1 |
| 20260502161051 | 64 | 20 | 4.0 | 9.0 | 0.00 | 2.19 | 1.09 | 82 | 1015.1 |
| 20260502160551 | 63 | 104 | 4.0 | 10.0 | 0.00 | 2.19 | 1.09 | 82 | 1015.0 |
| 20260502152050 | 62 | 40 | 3.0 | 7.0 | 0.00 | 2.19 | 1.09 | 87 | 1014.5 |
| 20260502151548 | 62 | 89 | 3.0 | 7.0 | 0.00 | 2.19 | 1.09 | 86 | 1014.5 |
| 20260502151047 | 62 | 319 | 2.0 | 7.0 | 0.00 | 2.19 | 1.09 | 89 | 1014.5 |
| 20260502150817 | 61 | 327 | 3.0 | 6.0 | 0.00 | 2.19 | 1.09 | 89 | 1014.4 |
| 20260502130543 | 54 | 76 | 2.0 | 6.0 | 0.01 | 2.19 | 1.09 | 95 | 1013.7 |
| 20260502123541 | 54 | 23 | 2.0 | 7.0 | 0.00 | 2.18 | 1.08 | 95 | 1013.5 |
| 20260502123041 | 54 | 6 | 2.0 | 5.0 | 0.00 | 2.18 | 1.08 | 95 | 1013.4 |
| 20260502122811 | 54 | 37 | 2.0 | 6.0 | 0.00 | 2.18 | 1.08 | 95 | 1013.4 |
| 20260502122312 | 54 | 39 | 3.0 | 8.0 | 0.00 | 2.19 | 1.08 | 95 | 1013.2 |
| 20260502121541 | 54 | 46 | 3.0 | 8.0 | 0.00 | 2.19 | 1.08 | 95 | 1012.9 |
| 20260502121311 | 54 | 18 | 3.0 | 8.0 | 0.00 | 2.19 | 1.08 | 95 | 1012.7 |
| 20260502120541 | 54 | 65 | 3.0 | 7.0 | 0.00 | 2.19 | 1.08 | 95 | 1012.8 |
| 20260502115539 | 54 | 56 | 3.0 | 8.0 | 0.01 | 2.19 | 1.08 | 95 | 1012.8 |
| 20260502115039 | 54 | 62 | 3.0 | 7.0 | 0.01 | 2.19 | 1.08 | 95 | 1012.7 |
| 20260502114538 | 54 | 33 | 3.0 | 8.0 | 0.01 | 2.19 | 1.08 | 95 | 1012.9 |
| 20260502114039 | 53 | 61 | 3.0 | 8.0 | 0.01 | 2.19 | 1.08 | 95 | 1012.9 |
| 20260502113809 | 53 | 59 | 3.0 | 7.0 | 0.02 | 2.19 | 1.08 | 95 | 1012.8 |
| 20260502113039 | 53 | 77 | 3.0 | 7.0 | 0.02 | 2.19 | 1.08 | 95 | 1012.8 |
| 20260502112539 | 53 | 57 | 3.0 | 7.0 | 0.02 | 2.19 | 1.08 | 95 | 1012.7 |
| 20260502112039 | 53 | 59 | 3.0 | 8.0 | 0.02 | 2.19 | 1.08 | 95 | 1012.5 |
| 20260502111810 | 53 | 60 | 4.0 | 8.0 | 0.02 | 2.19 | 1.08 | 95 | 1012.4 |
| 20260502111039 | 53 | 72 | 4.0 | 8.0 | 0.02 | 2.19 | 1.08 | 95 | 1012.4 |
| 20260502110538 | 53 | 72 | 3.0 | 7.0 | 0.02 | 2.19 | 1.08 | 95 | 1012.4 |
| 20260502110037 | 53 | 86 | 2.0 | 6.0 | 0.01 | 2.18 | 1.07 | 95 | 1012.4 |
| 20260502105537 | 53 | 51 | 3.0 | 10.0 | 0.01 | 2.18 | 1.07 | 95 | 1013.0 |
| 20260502105307 | 53 | 17 | 4.0 | 10.0 | 0.01 | 2.18 | 1.07 | 95 | 1012.4 |
| 20260502104809 | 53 | 345 | 4.0 | 10.0 | 0.02 | 2.18 | 1.07 | 95 | 1011.8 |
| 20260502104037 | 53 | 36 | 3.0 | 8.0 | 0.01 | 2.17 | 1.07 | 95 | 1011.8 |
| 20260502103536 | 53 | 85 | 4.0 | 7.0 | 0.03 | 2.17 | 1.06 | 95 | 1011.9 |
| 20260502103308 | 53 | 55 | 4.0 | 9.0 | 0.05 | 2.17 | 1.06 | 95 | 1011.9 |
| 20260502102537 | 53 | 101 | 4.0 | 9.0 | 0.06 | 2.17 | 1.06 | 95 | 1011.8 |
| 20260502102036 | 53 | 108 | 3.0 | 8.0 | 0.07 | 2.17 | 1.06 | 95 | 1011.9 |
| 20260502101806 | 53 | 61 | 2.0 | 8.0 | 0.10 | 2.17 | 1.06 | 95 | 1012.0 |
| 20260502101035 | 53 | 31 | 2.0 | 7.0 | 0.12 | 2.17 | 1.06 | 95 | 1012.2 |
| 20260502100539 | 53 | 53 | 4.0 | 11.0 | 0.12 | 2.17 | 1.06 | 95 | 1012.3 |
| 20260502100535 | 53 | 56 | 3.0 | 11.0 | 0.12 | 2.17 | 1.06 | 95 | 1012.3 |
| 20260502091532 | 53 | 24 | 3.0 | 9.0 | 0.12 | 2.07 | 0.96 | 95 | 1011.3 |
| 20260502091301 | 53 | 44 | 3.0 | 9.0 | 0.12 | 2.05 | 0.94 | 95 | 1011.7 |
| 20260502090531 | 53 | 51 | 3.0 | 9.0 | 0.14 | 2.05 | 0.94 | 95 | 1011.9 |
| 20260502071523 | 55 | 48 | 2.0 | 10.0 | 0.22 | 1.67 | 0.56 | 95 | 1011.1 |
| 20260502071023 | 55 | 82 | 3.0 | 10.0 | 0.21 | 1.65 | 0.54 | 95 | 1010.8 |
| 20260502070523 | 55 | 60 | 3.0 | 10.0 | 0.31 | 1.63 | 0.52 | 95 | 1010.5 |
| 20260502070023 | 55 | 101 | 3.0 | 10.0 | 0.33 | 1.62 | 0.51 | 95 | 1011.0 |
| 20260502065523 | 55 | 48 | 2.0 | 6.0 | 0.34 | 1.61 | 0.50 | 94 | 1011.1 |
| 20260502065022 | 55 | 76 | 2.0 | 6.0 | 0.38 | 1.60 | 0.49 | 94 | 1011.3 |
| 20260502064523 | 55 | 47 | 3.0 | 8.0 | 0.37 | 1.58 | 0.47 | 94 | 1011.2 |
| 20260502064023 | 55 | 35 | 2.0 | 8.0 | 0.37 | 1.57 | 0.46 | 94 | 1011.3 |
| 20260502063522 | 55 | 19 | 2.0 | 5.0 | 0.34 | 1.53 | 0.43 | 94 | 1012.3 |
| 20260502063023 | 55 | 68 | 2.0 | 5.0 | 0.29 | 1.48 | 0.38 | 94 | 1011.2 |
| 20260502062527 | 55 | 91 | 2.0 | 7.0 | 0.30 | 1.46 | 0.35 | 94 | 1011.6 |
| 20260502062523 | 55 | 16 | 2.0 | 7.0 | 0.28 | 1.46 | 0.36 | 94 | 1012.3 |
| 20260502061751 | 55 | 60 | 3.0 | 8.0 | 0.30 | 1.45 | 0.34 | 94 | 1011.4 |
| 20260502061251 | 55 | 14 | 2.0 | 8.0 | 0.31 | 1.44 | 0.33 | 94 | 1011.2 |
| 20260502060520 | 55 | 32 | 2.0 | 9.0 | 0.20 | 1.32 | 0.23 | 94 | 1011.5 |
| 20260502060251 | 55 | 65 | 4.0 | 10.0 | 0.18 | 1.29 | 0.18 | 94 | 1011.3 |
| 20260502055521 | 55 | 21 | 3.0 | 10.0 | 0.16 | 1.27 | 0.17 | 94 | 1011.3 |
| 20260502055021 | 56 | 53 | 2.0 | 7.0 | 0.11 | 1.22 | 0.12 | 94 | 1011.4 |
| 20260502054751 | 55 | 97 | 3.0 | 7.0 | 0.10 | 1.21 | 0.10 | 94 | 1012.3 |
| 20260502054020 | 55 | 76 | 3.0 | 7.0 | 0.09 | 1.20 | 0.09 | 94 | 1011.2 |
| 20260502053520 | 55 | 120 | 3.0 | 6.0 | 0.08 | 1.19 | 0.08 | 94 | 1011.6 |
| 20260502053019 | 55 | 77 | 3.0 | 7.0 | 0.08 | 1.19 | 0.08 | 94 | 1011.7 |
| 20260502052519 | 55 | 68 | 3.0 | 9.0 | 0.07 | 1.18 | 0.07 | 94 | 1011.5 |
| 20260502052250 | 55 | 359 | 2.0 | 9.0 | 0.05 | 1.16 | 0.06 | 94 | 1012.3 |
| 20260502051519 | 55 | 87 | 3.0 | 8.0 | 0.04 | 1.15 | 0.04 | 94 | 1012.3 |
| 20260502051019 | 55 | 55 | 4.0 | 8.0 | 0.02 | 1.13 | 0.03 | 94 | 1011.9 |
| 20260502050519 | 55 | 40 | 4.0 | 8.0 | 0.01 | 1.12 | 0.01 | 94 | 1011.9 |
| 20260502050018 | 55 | 57 | 4.0 | 8.0 | 0.00 | 1.11 | 0.00 | 94 | 1012.4 |
| 20260502045517 | 56 | 62 | 3.0 | 8.0 | 0.00 | 1.11 | 1.11 | 94 | 1012.0 |
| 20260502045018 | 55 | 77 | 3.0 | 7.0 | 0.01 | 1.11 | 1.11 | 94 | 1012.8 |
| 20260502044517 | 56 | 7 | 2.0 | 6.0 | 0.01 | 1.11 | 1.11 | 94 | 1013.0 |
| 20260502044017 | 56 | 56 | 2.0 | 7.0 | 0.01 | 1.11 | 1.11 | 94 | 1013.1 |
| 20260502043517 | 56 | 346 | 3.0 | 7.0 | 0.01 | 1.11 | 1.11 | 94 | 1013.1 |
| 20260502043017 | 56 | 51 | 4.0 | 9.0 | 0.01 | 1.11 | 1.11 | 94 | 1012.7 |
| 20260502042752 | 55 | 22 | 3.0 | 7.0 | 0.02 | 1.11 | 1.11 | 94 | 1012.4 |
| 20260502042517 | 55 | 47 | 5.0 | 9.0 | 0.02 | 1.11 | 1.11 | 94 | 1012.3 |
| 20260502041749 | 55 | 72 | 3.0 | 9.0 | 0.04 | 1.11 | 1.11 | 94 | 1012.4 |
| 20260502041016 | 55 | 47 | 5.0 | 10.0 | 0.06 | 1.11 | 1.11 | 94 | 1012.2 |
| 20260502040515 | 55 | 53 | 5.0 | 10.0 | 0.08 | 1.11 | 1.11 | 94 | 1011.9 |
| 20260502040016 | 55 | 52 | 5.0 | 11.0 | 0.10 | 1.11 | 1.11 | 94 | 1011.9 |
| 20260502035515 | 55 | 53 | 5.0 | 11.0 | 0.13 | 1.11 | 1.11 | 94 | 1011.9 |
| 20260502035013 | 56 | 63 | 5.0 | 10.0 | 0.13 | 1.10 | 1.10 | 94 | 1011.8 |
| 20260502034513 | 56 | 79 | 4.0 | 10.0 | 0.14 | 1.10 | 1.10 | 94 | 1012.2 |
| 20260502034012 | 56 | 20 | 3.0 | 7.0 | 0.15 | 1.10 | 1.10 | 94 | 1012.4 |
| 20260502033513 | 56 | 79 | 3.0 | 10.0 | 0.16 | 1.10 | 1.10 | 94 | 1012.5 |
| 20260502033013 | 56 | 60 | 4.0 | 10.0 | 0.20 | 1.10 | 1.10 | 94 | 1012.0 |
| 20260502032514 | 56 | 72 | 4.0 | 7.0 | 0.21 | 1.09 | 1.09 | 94 | 1012.6 |
| 20260502032013 | 56 | 98 | 3.0 | 7.0 | 0.23 | 1.09 | 1.09 | 94 | 1012.9 |
| 20260502031513 | 56 | 62 | 2.0 | 7.0 | 0.23 | 1.07 | 1.07 | 94 | 1013.1 |
| 20260502031245 | 56 | 198 | 2.0 | 6.0 | 0.24 | 1.05 | 1.05 | 94 | 1014.4 |
| 20260502030511 | 56 | 318 | 2.0 | 6.0 | 0.28 | 1.03 | 1.03 | 94 | 1013.5 |
| 20260502030012 | 56 | 72 | 0.0 | 2.0 | 0.31 | 1.01 | 1.01 | 94 | 1014.3 |
| 20260502025511 | 56 | 242 | 1.0 | 4.0 | 0.31 | 0.98 | 0.98 | 94 | 1014.8 |
| 20260502025011 | 56 | 247 | 2.0 | 4.0 | 0.32 | 0.97 | 0.97 | 94 | 1014.1 |
| 20260502024511 | 56 | 49 | 2.0 | 5.0 | 0.33 | 0.96 | 0.96 | 94 | 1013.7 |
| 20260502024012 | 56 | 81 | 2.0 | 5.0 | 0.34 | 0.95 | 0.95 | 94 | 1013.4 |
| 20260502023511 | 56 | 74 | 3.0 | 6.0 | 0.35 | 0.94 | 0.94 | 94 | 1013.2 |
| 20260502023241 | 56 | 66 | 2.0 | 6.0 | 0.35 | 0.90 | 0.91 | 94 | 1013.0 |
| 20260502022743 | 56 | 42 | 2.0 | 4.0 | 0.36 | 0.88 | 0.88 | 94 | 1013.4 |
| 20260502022011 | 56 | 114 | 3.0 | 7.0 | 0.38 | 0.86 | 0.86 | 94 | 1013.3 |
| 20260502021511 | 56 | 77 | 3.0 | 9.0 | 0.37 | 0.84 | 0.84 | 94 | 1012.9 |
| 20260502021010 | 56 | 58 | 3.0 | 9.0 | 0.35 | 0.81 | 0.81 | 94 | 1012.9 |
| 20260502020509 | 56 | 111 | 2.0 | 5.0 | 0.29 | 0.75 | 0.75 | 94 | 1013.1 |
| 20260502020241 | 56 | 83 | 2.0 | 6.0 | 0.25 | 0.70 | 0.71 | 94 | 1013.6 |
| 20260502015507 | 56 | 115 | 3.0 | 7.0 | 0.22 | 0.67 | 0.68 | 94 | 1013.2 |
| 20260502015006 | 55 | 26 | 4.0 | 7.0 | 0.20 | 0.65 | 0.65 | 94 | 1012.5 |
| 20260502014505 | 55 | 84 | 5.0 | 10.0 | 0.18 | 0.63 | 0.63 | 94 | 1012.2 |
| 20260502014005 | 55 | 34 | 5.0 | 10.0 | 0.16 | 0.61 | 0.62 | 93 | 1011.6 |
| 20260502013505 | 55 | 48 | 4.0 | 9.0 | 0.14 | 0.59 | 0.59 | 93 | 1011.8 |
| 20260502013005 | 55 | 67 | 3.0 | 8.0 | 0.12 | 0.55 | 0.56 | 93 | 1012.2 |
| 20260502012735 | 55 | 72 | 4.0 | 9.0 | 0.09 | 0.51 | 0.52 | 93 | 1012.2 |
| 20260502012234 | 55 | 69 | 4.0 | 9.0 | 0.08 | 0.48 | 0.49 | 93 | 1012.2 |
| 20260502011503 | 55 | 63 | 5.0 | 12.0 | 0.09 | 0.47 | 0.47 | 93 | 1011.9 |
| 20260502011004 | 55 | 44 | 5.0 | 12.0 | 0.11 | 0.46 | 0.47 | 93 | 1011.5 |
| 20260502010503 | 55 | 67 | 6.0 | 16.0 | 0.12 | 0.46 | 0.46 | 93 | 1011.4 |
| 20260502010003 | 55 | 18 | 7.0 | 16.0 | 0.11 | 0.45 | 0.45 | 93 | 1011.1 |
| 20260502005503 | 55 | 13 | 7.0 | 15.0 | 0.13 | 0.45 | 0.45 | 93 | 1011.2 |
| 20260502005003 | 55 | 58 | 6.0 | 15.0 | 0.20 | 0.45 | 0.45 | 93 | 1011.1 |
| 20260502004503 | 55 | 60 | 6.0 | 13.0 | 0.20 | 0.45 | 0.45 | 93 | 1011.1 |
| 20260502004003 | 56 | 41 | 5.0 | 13.0 | 0.20 | 0.45 | 0.45 | 93 | 1011.5 |
| 20260502003505 | 56 | 43 | 4.0 | 10.0 | 0.18 | 0.43 | 0.43 | 92 | 1011.6 |
| 20260502003501 | 56 | 348 | 5.0 | 10.0 | 0.19 | 0.44 | 0.44 | 92 | 1011.7 |
| 20260502002501 | 56 | 72 | 3.0 | 9.0 | 0.18 | 0.42 | 0.42 | 92 | 1012.0 |
| 20260502002002 | 57 | 63 | 2.0 | 6.0 | 0.18 | 0.40 | 0.40 | 92 | 1012.5 |
| 20260502001501 | 57 | 72 | 3.0 | 9.0 | 0.17 | 0.38 | 0.38 | 92 | 1012.7 |
| 20260502001001 | 57 | 78 | 5.0 | 11.0 | 0.14 | 0.35 | 0.35 | 92 | 1012.4 |
| 20260502000501 | 57 | 10 | 6.0 | 13.0 | 0.13 | 0.34 | 0.34 | 91 | 1012.2 |
| 20260502000001 | 58 | 91 | 6.0 | 13.0 | 0.13 | 0.34 | 0.34 | 91 | 1011.5 |
| 20260501235501 | 58 | 72 | 4.0 | 10.0 | 0.11 | 0.32 | 0.32 | 92 | 1011.8 |
| 20260501235000 | 59 | 11 | 4.0 | 9.0 | 0.04 | 0.25 | 0.26 | 92 | 1011.4 |
| 20260501234501 | 59 | 100 | 4.0 | 9.0 | 0.04 | 0.25 | 0.25 | 92 | 1011.1 |
| 20260501234002 | 59 | 357 | 4.0 | 11.0 | 0.05 | 0.25 | 0.25 | 92 | 1010.7 |
| 20260501233501 | 59 | 74 | 4.0 | 11.0 | 0.05 | 0.25 | 0.25 | 92 | 1010.9 |
| 20260501233001 | 59 | 49 | 4.0 | 9.0 | 0.06 | 0.25 | 0.25 | 92 | 1010.9 |
| 20260501232501 | 59 | 70 | 5.0 | 12.0 | 0.06 | 0.24 | 0.24 | 91 | 1010.9 |
| 20260501232001 | 59 | 41 | 5.0 | 12.0 | 0.04 | 0.22 | 0.23 | 91 | 1011.0 |
| 20260501231500 | 59 | 73 | 4.0 | 10.0 | 0.03 | 0.21 | 0.21 | 91 | 1011.4 |
| 20260501231001 | 60 | 37 | 5.0 | 12.0 | 0.04 | 0.21 | 0.21 | 91 | 1011.5 |
| 20260501230501 | 60 | 70 | 5.0 | 12.0 | 0.06 | 0.21 | 0.21 | 91 | 1011.2 |
| 20260501230231 | 60 | 79 | 5.0 | 12.0 | 0.07 | 0.21 | 0.21 | 91 | 1011.2 |
| 20260501225459 | 60 | 51 | 5.0 | 13.0 | 0.09 | 0.21 | 0.21 | 91 | 1011.1 |
| 20260501225000 | 60 | 78 | 4.0 | 13.0 | 0.10 | 0.21 | 0.21 | 91 | 1011.0 |
| 20260501224459 | 61 | 44 | 4.0 | 8.0 | 0.12 | 0.21 | 0.21 | 92 | 1010.9 |
| 20260501223959 | 61 | 78 | 4.0 | 11.0 | 0.13 | 0.20 | 0.20 | 92 | 1011.1 |
| 20260501223459 | 61 | 43 | 5.0 | 12.0 | 0.16 | 0.20 | 0.20 | 92 | 1011.0 |
| 20260501223229 | 61 | 108 | 4.0 | 12.0 | 0.15 | 0.19 | 0.19 | 92 | 1010.2 |
| 20260501222500 | 62 | 77 | 4.0 | 10.0 | 0.15 | 0.18 | 0.18 | 92 | 1011.6 |
| 20260501221958 | 62 | 65 | 4.0 | 10.0 | 0.16 | 0.18 | 0.18 | 92 | 1010.9 |
| 20260501221730 | 62 | 58 | 4.0 | 9.0 | 0.16 | 0.18 | 0.18 | 93 | 1011.0 |
| 20260501220959 | 62 | 77 | 4.0 | 10.0 | 0.15 | 0.17 | 0.17 | 92 | 1011.0 |
| 20260501220503 | 62 | 33 | 4.0 | 10.0 | 0.12 | 0.14 | 0.14 | 92 | 1010.3 |
| 20260501220459 | 62 | 7 | 5.0 | 10.0 | 0.13 | 0.15 | 0.15 | 92 | 1010.8 |
| 20260501215729 | 63 | 48 | 3.0 | 8.0 | 0.10 | 0.12 | 0.12 | 91 | 1010.9 |
| 20260501215230 | 63 | 89 | 3.0 | 8.0 | 0.09 | 0.11 | 0.11 | 91 | 1011.0 |
| 20260501214500 | 63 | 67 | 4.0 | 12.0 | 0.07 | 0.09 | 0.09 | 91 | 1011.4 |
| 20260501213959 | 63 | 105 | 5.0 | 13.0 | 0.05 | 0.07 | 0.08 | 90 | 1010.8 |
| 20260501213459 | 63 | 54 | 5.0 | 13.0 | 0.02 | 0.04 | 0.04 | 89 | 1010.9 |
| 20260501213228 | 64 | 8 | 4.0 | 9.0 | 0.02 | 0.04 | 0.04 | 89 | 1010.8 |
| 20260501212457 | 64 | 63 | 5.0 | 10.0 | 0.02 | 0.03 | 0.03 | 88 | 1010.6 |
| 20260501211957 | 65 | 66 | 4.0 | 10.0 | 0.01 | 0.02 | 0.02 | 87 | 1010.6 |
| 20260501211455 | 65 | 20 | 5.0 | 13.0 | 0.01 | 0.02 | 0.02 | 86 | 1010.6 |
| 20260501210955 | 65 | 46 | 6.0 | 13.0 | 0.01 | 0.02 | 0.02 | 85 | 1010.3 |
| 20260501210455 | 65 | 65 | 5.0 | 11.0 | 0.01 | 0.02 | 0.02 | 86 | 1010.3 |
| 20260501205955 | 65 | 45 | 5.0 | 11.0 | 0.01 | 0.02 | 0.02 | 86 | 1010.1 |
| 20260501205455 | 65 | 52 | 5.0 | 11.0 | 0.01 | 0.02 | 0.02 | 85 | 1010.2 |
| 20260501204954 | 65 | 55 | 6.0 | 11.0 | 0.01 | 0.02 | 0.02 | 85 | 1010.2 |
| 20260501204454 | 65 | 65 | 4.0 | 11.0 | 0.01 | 0.02 | 0.02 | 85 | 1010.3 |
| 20260501203953 | 66 | 86 | 5.0 | 12.0 | 0.01 | 0.02 | 0.02 | 86 | 1010.0 |
| 20260501203453 | 65 | 89 | 6.0 | 16.0 | 0.01 | 0.02 | 0.02 | 86 | 1009.7 |
| 20260501202953 | 66 | 61 | 6.0 | 16.0 | 0.01 | 0.02 | 0.02 | 85 | 1009.3 |
| 20260501202453 | 66 | 9 | 6.0 | 12.0 | 0.00 | 0.01 | 0.01 | 85 | 1009.6 |
| 20260501201953 | 66 | 36 | 6.0 | 15.0 | 0.00 | 0.01 | 0.01 | 84 | 1009.7 |
| 20260501201453 | 66 | 77 | 5.0 | 15.0 | 0.00 | 0.01 | 0.01 | 84 | 1009.9 |
| 20260501200953 | 67 | 51 | 5.0 | 12.0 | 0.00 | 0.01 | 0.01 | 84 | 1010.2 |
| 20260501200453 | 67 | 20 | 5.0 | 12.0 | 0.00 | 0.01 | 0.01 | 83 | 1010.3 |
| 20260501195957 | 67 | 88 | 5.0 | 12.0 | 0.00 | 0.01 | 0.01 | 85 | 1010.4 |
| 20260501195953 | 67 | 66 | 5.0 | 12.0 | 0.00 | 0.01 | 0.01 | 84 | 1010.4 |
| 20260501194951 | 66 | 75 | 4.0 | 10.0 | 0.00 | 0.01 | 0.01 | 85 | 1010.6 |
| 20260501194451 | 66 | 49 | 4.0 | 10.0 | 0.00 | 0.01 | 0.01 | 85 | 1011.0 |
| 20260501193952 | 66 | 59 | 4.0 | 11.0 | 0.00 | 0.01 | 0.01 | 85 | 1011.2 |
| 20260501193451 | 66 | 82 | 5.0 | 11.0 | 0.00 | 0.01 | 0.01 | 85 | 1011.3 |
| 20260501192951 | 66 | 32 | 4.0 | 9.0 | 0.00 | 0.01 | 0.01 | 85 | 1011.5 |
| 20260501192451 | 66 | 96 | 4.0 | 11.0 | 0.00 | 0.01 | 0.01 | 85 | 1011.8 |
| 20260501192221 | 66 | 58 | 4.0 | 11.0 | 0.00 | 0.01 | 0.01 | 85 | 1011.8 |
| 20260501191450 | 66 | 49 | 3.0 | 9.0 | 0.00 | 0.01 | 0.01 | 86 | 1012.0 |
| 20260501190951 | 66 | 27 | 3.0 | 9.0 | 0.00 | 0.01 | 0.01 | 87 | 1012.0 |
| 20260501190451 | 66 | 82 | 3.0 | 9.0 | 0.00 | 0.01 | 0.01 | 87 | 1012.2 |
| 20260501190222 | 66 | 86 | 4.0 | 10.0 | 0.00 | 0.01 | 0.01 | 87 | 1012.4 |
| 20260501185451 | 66 | 28 | 4.0 | 10.0 | 0.00 | 0.01 | 0.01 | 87 | 1012.3 |
| 20260501184952 | 66 | 70 | 4.0 | 9.0 | 0.00 | 0.01 | 0.01 | 88 | 1012.4 |
| 20260501184451 | 66 | 53 | 4.0 | 9.0 | 0.00 | 0.01 | 0.01 | 88 | 1012.5 |
| 20260501183951 | 66 | 74 | 4.0 | 9.0 | 0.00 | 0.01 | 0.01 | 88 | 1012.5 |
| 20260501183721 | 66 | 45 | 3.0 | 7.0 | 0.00 | 0.01 | 0.01 | 88 | 1012.5 |
| 20260501182950 | 66 | 73 | 3.0 | 8.0 | 0.00 | 0.01 | 0.01 | 88 | 1012.5 |
| 20260501182449 | 67 | 96 | 3.0 | 8.0 | 0.00 | 0.01 | 0.01 | 87 | 1012.5 |
| 20260501181949 | 67 | 72 | 3.0 | 8.0 | 0.00 | 0.01 | 0.01 | 87 | 1012.5 |
| 20260501181449 | 67 | 56 | 2.0 | 7.0 | 0.00 | 0.01 | 0.01 | 86 | 1012.9 |
| 20260501180950 | 67 | 53 | 3.0 | 7.0 | 0.00 | 0.01 | 0.01 | 86 | 1013.1 |
| 20260501180449 | 67 | 1 | 3.0 | 8.0 | 0.00 | 0.01 | 0.01 | 86 | 1013.0 |
| 20260501175949 | 67 | 66 | 2.0 | 8.0 | 0.00 | 0.01 | 0.01 | 86 | 1012.9 |
| 20260501175721 | 67 | 77 | 2.0 | 5.0 | 0.00 | 0.01 | 0.01 | 86 | 1012.9 |
| 20260501175221 | 67 | 65 | 2.0 | 5.0 | 0.00 | 0.01 | 0.01 | 86 | 1013.0 |
| 20260501174449 | 67 | 89 | 2.0 | 4.0 | 0.00 | 0.01 | 0.01 | 86 | 1012.9 |
| 20260501173949 | 67 | 52 | 3.0 | 8.0 | 0.00 | 0.01 | 0.01 | 86 | 1012.7 |
| 20260501173447 | 67 | 39 | 4.0 | 9.0 | 0.00 | 0.01 | 0.01 | 86 | 1012.7 |
| 20260501172946 | 67 | 58 | 4.0 | 9.0 | 0.00 | 0.01 | 0.01 | 86 | 1012.7 |
| 20260501172718 | 67 | 108 | 4.0 | 9.0 | 0.00 | 0.01 | 0.01 | 86 | 1012.7 |
| 20260501171947 | 67 | 62 | 3.0 | 9.0 | 0.00 | 0.01 | 0.01 | 86 | 1013.0 |
| 20260501171447 | 67 | 36 | 2.0 | 7.0 | 0.00 | 0.01 | 0.01 | 87 | 1013.0 |
| 20260501171219 | 67 | 103 | 3.0 | 7.0 | 0.00 | 0.01 | 0.01 | 87 | 1013.1 |
| 20260501170719 | 67 | 75 | 4.0 | 9.0 | 0.00 | 0.02 | 0.01 | 86 | 1012.9 |
| 20260501165947 | 67 | 20 | 4.0 | 9.0 | 0.00 | 0.02 | 0.01 | 86 | 1013.1 |
| 20260501165719 | 67 | 73 | 4.0 | 8.0 | 0.00 | 0.02 | 0.01 | 86 | 1013.0 |
| 20260501165218 | 67 | 346 | 4.0 | 8.0 | 0.00 | 0.03 | 0.01 | 87 | 1013.1 |